Weather History for Katowice, Poland

Change the Weather History Date:

Wednesday, March 20, 2013

  Actual Average Record
Temperature  
Mean Temperature 35 °F -  
Max Temperature 42 °F 50 °F 63 °F (2014)
Min Temperature 28 °F 32 °F 14 °F (2005)
Degree Days  
Heating Degree Days 30    
Moisture  
Dew Point 29 °F    
Average Humidity 83    
Maximum Humidity 100    
Minimum Humidity 57    
Precipitation  
Precipitation 0.00 in - - ()
Sea Level Pressure  
Sea Level Pressure 29.68 in    
Wind  
Wind Speed 5 mph ()    
Max Wind Speed 12 mph    
Max Gust Speed -    
Visibility 3.8 miles    
Events Snow    
Averages and records for this station are not official NWS values.
T = Trace of Precipitation, MM = Missing Value Source: Averaged Metar Reports

Daily Weather History Graph

Daily Weather History Graph

Search for Another Location

Airport:

Trip Planner

Search our weather history database for the weather conditions in past years. The results will help you decide how hot, cold, wet, or windy it might be!

Date:

Astronomy

Mar. 20, 2013 Rise Set
Actual Time 5:46 AM CET 5:56 PM CET
Civil Twilight 5:13 AM CET 6:29 PM CET
Nautical Twilight 4:35 AM CET 7:07 PM CET
Astronomical Twilight 3:55 AM CET 7:47 PM CET
Moon 10:41 AM CET (3/20) 1:47 AM CET (3/20)
Length of Visible Light 13h 15m
Length of Day
12h 10m
First Quarter, 57% of the Moon is Illuminated
Mar 20
First Quarter
Mar 27
Full
Apr 3
Last Quarter
Apr 10
New
Apr 18
First Quarter

Hourly Weather History & Observations

Time (CET) Temp. Windchill Dew Point Humidity Pressure Visibility Wind Dir Wind Speed Gust Speed Precip Events Conditions
12:00 AM 30.2 °F 23.4 °F 28.4 °F 93% 29.56 in 2.5 mi West 6.9 mph - N/A Snow Light Snow
12:30 AM 30.2 °F 24.3 °F 28.4 °F 93% 29.56 in 2.5 mi West 5.8 mph - N/A Snow Light Snow
1:00 AM 30.2 °F 24.3 °F 28.4 °F 93% 29.56 in 2.5 mi West 5.8 mph - N/A Snow Light Snow
1:30 AM 30.2 °F 24.3 °F 28.4 °F 93% 29.59 in 2.5 mi West 5.8 mph - N/A Snow Light Snow
2:00 AM 30.2 °F 25.4 °F 28.4 °F 93% 29.56 in 2.5 mi SW 4.6 mph - N/A Snow Light Snow
2:30 AM 30.2 °F 25.4 °F 28.4 °F 93% 29.59 in 2.5 mi SW 4.6 mph - N/A Snow Light Snow
3:00 AM 30.2 °F 26.7 °F 28.4 °F 93% 29.59 in 2.5 mi SW 3.5 mph - N/A Snow Light Snow
3:30 AM 30.2 °F - 28.4 °F 93% 29.59 in 2.5 mi WSW 2.3 mph - N/A Snow Light Snow
4:00 AM 30.2 °F - 28.4 °F 93% 29.59 in 2.5 mi Calm Calm - N/A Snow Light Snow
4:30 AM 30.2 °F - 28.4 °F 93% 29.59 in 2.5 mi WSW 2.3 mph - N/A Snow Light Snow
5:00 AM 30.2 °F 26.7 °F 28.4 °F 93% 29.59 in 1.9 mi SSE 3.5 mph - N/A   Mostly Cloudy
5:30 AM 30.2 °F - 28.4 °F 93% 29.62 in 1.6 mi Variable 1.2 mph - N/A   Mostly Cloudy
6:00 AM 28.4 °F 24.6 °F 28.4 °F 100% 29.62 in 1.6 mi SSE 3.5 mph - N/A   Mostly Cloudy
6:30 AM 30.2 °F - 28.4 °F 93% 29.62 in 1.9 mi Variable 2.3 mph - N/A Snow Light Snow
7:00 AM 30.2 °F - 28.4 °F 93% 29.62 in 1.9 mi Variable 2.3 mph - N/A   Mostly Cloudy
7:30 AM 32.0 °F 28.7 °F 30.2 °F 93% 29.65 in 1.9 mi SSW 3.5 mph - N/A   Mostly Cloudy
8:00 AM 32.0 °F 28.7 °F 30.2 °F 93% 29.65 in 1.9 mi West 3.5 mph - N/A   Mostly Cloudy
8:30 AM 33.8 °F 29.6 °F 32.0 °F 93% 29.65 in 2.5 mi SW 4.6 mph - N/A   Scattered Clouds
9:00 AM 35.6 °F 29.2 °F 32.0 °F 87% 29.65 in 4.3 mi WSW 8.1 mph - N/A   Scattered Clouds
9:30 AM 35.6 °F 29.9 °F 32.0 °F 87% 29.68 in 4.3 mi West 6.9 mph - N/A   Scattered Clouds
10:00 AM 35.6 °F 29.2 °F 32.0 °F 87% 29.68 in 6.2 mi West 8.1 mph - N/A   Mostly Cloudy
10:30 AM 37.4 °F 31.4 °F 32.0 °F 81% 29.68 in 6.2 mi West 8.1 mph - N/A   Mostly Cloudy
11:00 AM 39.2 °F 33.0 °F 32.0 °F 75% 29.68 in 6.2 mi West 9.2 mph - N/A   Mostly Cloudy
11:30 AM 39.2 °F 32.5 °F 32.0 °F 75% 29.71 in 6.2 mi West 10.4 mph - N/A   Scattered Clouds
12:00 PM 39.2 °F 32.0 °F 32.0 °F 75% 29.71 in 6.2 mi West 11.5 mph - N/A   Scattered Clouds
12:30 PM 39.2 °F 33.6 °F 32.0 °F 75% 29.71 in 6.2 mi WSW 8.1 mph - N/A   Scattered Clouds
1:00 PM 41.0 °F 34.7 °F 30.2 °F 65% 29.71 in 6.2 mi West 10.4 mph - N/A   Partly Cloudy
1:30 PM 41.0 °F 35.2 °F 30.2 °F 65% 29.71 in 6.2 mi WSW 9.2 mph - N/A   Partly Cloudy
2:00 PM 41.0 °F 34.3 °F 28.4 °F 61% 29.71 in 6.2 mi WSW 11.5 mph - N/A   Partly Cloudy
2:30 PM 42.8 °F 37.5 °F 28.4 °F 57% 29.71 in 6.2 mi WSW 9.2 mph - N/A   Partly Cloudy
3:00 PM 42.8 °F 37.5 °F 30.2 °F 61% 29.71 in 6.2 mi West 9.2 mph - N/A   Partly Cloudy
3:30 PM 42.8 °F 37.0 °F 30.2 °F 61% 29.71 in 6.2 mi West 10.4 mph - N/A   Partly Cloudy
4:00 PM 42.8 °F 37.0 °F 30.2 °F 61% 29.71 in 6.2 mi West 10.4 mph - N/A   Partly Cloudy
4:30 PM 42.8 °F 40.1 °F 30.2 °F 61% 29.71 in 6.2 mi West 4.6 mph - N/A   Partly Cloudy
5:00 PM 42.8 °F 40.1 °F 30.2 °F 61% 29.71 in - NW 4.6 mph - N/A   Clear
5:30 PM 41.0 °F 37.1 °F 30.2 °F 65% 29.74 in - NNE 5.8 mph - N/A   Clear
6:00 PM 37.4 °F 32.8 °F 30.2 °F 75% 29.74 in - NNE 5.8 mph - N/A   Clear
6:30 PM 35.6 °F 31.7 °F 30.2 °F 81% 29.74 in 4.3 mi NE 4.6 mph - N/A   Unknown
7:00 PM 33.8 °F 29.6 °F 30.2 °F 87% 29.77 in 4.3 mi ENE 4.6 mph - N/A   Unknown
7:30 PM 33.8 °F 28.6 °F 30.2 °F 87% 29.77 in 3.7 mi ENE 5.8 mph - N/A   Unknown
8:00 PM 30.2 °F 23.4 °F 28.4 °F 93% 29.77 in 3.7 mi East 6.9 mph - N/A   Unknown
8:30 PM 30.2 °F 23.4 °F 28.4 °F 93% 29.77 in 3.1 mi ENE 6.9 mph - N/A   Mist
9:00 PM 30.2 °F 21.9 °F 28.4 °F 93% 29.77 in 3.1 mi East 9.2 mph - N/A   Mist
9:30 PM 30.2 °F 21.9 °F 28.4 °F 93% 29.80 in 3.1 mi East 9.2 mph - N/A   Mist
10:00 PM 30.2 °F 24.3 °F 28.4 °F 93% 29.80 in 3.1 mi East 5.8 mph - N/A   Mist
10:30 PM 30.2 °F 24.3 °F 26.6 °F 86% 29.77 in 3.1 mi East 5.8 mph - N/A   Mist
11:00 PM 28.4 °F 22.2 °F 26.6 °F 93% 29.77 in 2.5 mi East 5.8 mph - N/A   Mist
11:30 PM 28.4 °F 21.2 °F 26.6 °F 93% 29.77 in 2.5 mi East 6.9 mph - N/A   Mist